| time (UTC) | temp C | wind direction | speed KPH | gust KPH | rain 1hr cm | rain 24hr cm | rain mn cm | humidity % | barometer mb |
| 20260509013021 | -17 | 0.0 | 0.0 | 0.00 | 0.00 | 0.00 | 1012.7 | ||
| 20260509011517 | 13 | 235 | 0.0 | 0.0 | 0.00 | 0.00 | 0.00 | 90 | 1012.5 |
| 20260509010022 | 13 | 235 | 0.0 | 0.0 | 0.00 | 0.00 | 0.00 | 89 | 1012.7 |
| 20260509004528 | 14 | 235 | 0.0 | 0.0 | 0.00 | 0.00 | 0.00 | 88 | 1012.6 |
| 20260509003014 | 15 | 235 | 0.0 | 0.0 | 0.00 | 0.00 | 0.00 | 87 | 1012.6 |
| 20260509001513 | 15 | 235 | 0.0 | 0.0 | 0.00 | 0.00 | 0.00 | 84 | 1012.3 |
| 20260509000013 | 16 | 235 | 0.0 | 0.0 | 0.00 | 0.00 | 0.00 | 82 | 1012.3 |
| 20260508234612 | 16 | 235 | 0.0 | 0.0 | 0.00 | 0.00 | 0.00 | 82 | 1012.3 |
| 20260508233108 | 16 | 235 | 0.0 | 0.0 | 0.00 | 0.00 | 0.00 | 82 | 1012.3 |
| 20260508231636 | 17 | 235 | 0.0 | 0.0 | 0.00 | 0.00 | 0.00 | 79 | 1012.2 |
| 20260508224609 | 17 | 235 | 0.0 | 0.0 | 0.00 | 0.00 | 0.00 | 77 | 1012.3 |
| 20260508223058 | 17 | 235 | 0.0 | 0.0 | 0.00 | 0.00 | 0.00 | 71 | 1012.3 |
| 20260508221559 | 18 | 235 | 0.0 | 0.0 | 0.00 | 0.00 | 0.00 | 70 | 1012.2 |
| 20260508220057 | 18 | 235 | 0.0 | 3.2 | 0.00 | 0.00 | 0.00 | 64 | 1012.2 |
| 20260508214636 | 18 | 235 | 0.0 | 0.0 | 0.00 | 0.00 | 0.00 | 61 | 1012.3 |
| 20260508213048 | 20 | 235 | 0.0 | 0.0 | 0.00 | 0.00 | 0.00 | 58 | 1012.5 |
| 20260508211544 | 20 | 235 | 0.0 | 0.0 | 0.00 | 0.00 | 0.00 | 61 | 1012.2 |
| 20260508210041 | 20 | 235 | 0.0 | 1.6 | 0.00 | 0.00 | 0.00 | 60 | 1012.2 |
| 20260508204539 | 20 | 235 | 0.0 | 0.0 | 0.00 | 0.00 | 0.00 | 62 | 1012.3 |
| 20260508203038 | 20 | 235 | 0.0 | 4.8 | 0.00 | 0.00 | 0.00 | 64 | 1012.3 |
| 20260508201537 | 21 | 235 | 0.0 | 0.0 | 0.00 | 0.00 | 0.00 | 58 | 1012.6 |
| 20260508200034 | 20 | 235 | 0.0 | 1.6 | 0.00 | 0.00 | 0.00 | 62 | 1012.8 |
| 20260508194531 | 20 | 235 | 0.0 | 9.7 | 0.00 | 0.00 | 0.00 | 60 | 1013.3 |
| 20260508193017 | 20 | 234 | 1.6 | 9.7 | 0.00 | 0.00 | 0.00 | 52 | 1013.6 |
| 20260508191530 | 20 | 264 | 0.0 | 8.0 | 0.00 | 0.00 | 0.00 | 51 | 1013.8 |
| 20260508190018 | 20 | 90 | 0.0 | 9.7 | 0.00 | 0.00 | 0.00 | 49 | 1014.1 |
| 20260508184511 | 21 | 277 | 1.6 | 6.4 | 0.00 | 0.00 | 0.00 | 49 | 1014.2 |
| 20260508183006 | 20 | 239 | 0.0 | 1.6 | 0.00 | 0.00 | 0.00 | 52 | 1014.4 |
| 20260508181504 | 20 | 240 | 8.0 | 11.3 | 0.00 | 0.00 | 0.00 | 52 | 1014.6 |
| 20260508180003 | 19 | 225 | 3.2 | 11.3 | 0.00 | 0.00 | 0.00 | 52 | 1014.8 |
| 20260508174501 | 20 | 292 | 1.6 | 8.0 | 0.00 | 0.00 | 0.00 | 56 | 1014.9 |
| 20260508173046 | 19 | 240 | 0.0 | 6.4 | 0.00 | 0.00 | 0.00 | 57 | 1015.2 |
| 20260508171545 | 19 | 238 | 0.0 | 1.6 | 0.00 | 0.00 | 0.00 | 53 | 1015.5 |
| 20260508170043 | 19 | 326 | 1.6 | 9.7 | 0.00 | 0.00 | 0.00 | 53 | 1015.7 |
| 20260508164542 | 18 | 242 | 1.6 | 8.0 | 0.00 | 0.00 | 0.00 | 58 | 1016.2 |
| 20260508163039 | 18 | 215 | 0.0 | 6.4 | 0.00 | 0.00 | 0.00 | 58 | 1016.3 |
| 20260508161535 | 18 | 211 | 0.0 | 1.6 | 0.00 | 0.00 | 0.00 | 54 | 1016.5 |
| 20260508160030 | 17 | 209 | 0.0 | 1.6 | 0.00 | 0.00 | 0.00 | 57 | 1016.7 |
| 20260508154527 | 17 | 200 | 0.0 | 6.4 | 0.00 | 0.00 | 0.00 | 60 | 1017.0 |
| 20260508153012 | 16 | 193 | 0.0 | 4.8 | 0.00 | 0.00 | 0.00 | 59 | 1017.2 |
| 20260508151511 | 16 | 191 | 3.2 | 8.0 | 0.00 | 0.00 | 0.00 | 63 | 1017.4 |
| 20260508150018 | 16 | 184 | 1.6 | 8.0 | 0.00 | 0.00 | 0.00 | 66 | 1017.5 |
| 20260508144503 | 15 | 183 | 0.0 | 8.0 | 0.00 | 0.00 | 0.00 | 71 | 1017.5 |
| 20260508143000 | 14 | 180 | 0.0 | 6.4 | 0.00 | 0.00 | 0.00 | 74 | 1017.7 |
| 20260508141557 | 13 | 180 | 1.6 | 6.4 | 0.00 | 0.00 | 0.00 | 74 | 1017.9 |
| 20260508140104 | 12 | 181 | 1.6 | 8.0 | 0.00 | 0.00 | 0.00 | 82 | 1018.0 |
| 20260508134555 | 12 | 192 | 0.0 | 8.0 | 0.00 | 0.00 | 0.00 | 84 | 1018.1 |
| 20260508133028 | 11 | 193 | 1.6 | 9.7 | 0.00 | 0.00 | 0.00 | 87 | 1018.1 |
| 20260508131524 | 11 | 193 | 4.8 | 11.3 | 0.00 | 0.00 | 0.00 | 90 | 1018.1 |
| 20260508130010 | 10 | 196 | 3.2 | 6.4 | 0.00 | 0.00 | 0.00 | 93 | 1018.3 |
| 20260508124506 | 9 | 196 | 0.0 | 6.4 | 0.00 | 0.00 | 0.00 | 96 | 1018.5 |
| 20260508123007 | 8 | 196 | 0.0 | 6.4 | 0.00 | 0.00 | 0.00 | 99 | 1018.3 |
| 20260508121600 | 8 | 196 | 0.0 | 6.4 | 0.00 | 0.00 | 0.00 | 99 | 1018.3 |
| 20260508120057 | 8 | 193 | 0.0 | 6.4 | 0.00 | 0.00 | 0.00 | 99 | 1018.1 |
| 20260508114608 | 7 | 193 | 3.2 | 6.4 | 0.00 | 0.00 | 0.00 | 99 | 1018.1 |
| 20260508113102 | 7 | 193 | 0.0 | 0.0 | 0.00 | 0.00 | 0.00 | 99 | 1017.7 |
| 20260508111602 | 7 | 193 | 0.0 | 0.0 | 0.00 | 0.00 | 0.00 | 99 | 1017.5 |
| 20260508110047 | 7 | 193 | 0.0 | 0.0 | 0.00 | 0.00 | 0.00 | 99 | 1017.2 |
| 20260508104544 | 7 | 193 | 0.0 | 1.6 | 0.00 | 0.00 | 0.00 | 99 | 1017.0 |
| 20260508103042 | 7 | 194 | 1.6 | 4.8 | 0.00 | 0.00 | 0.00 | 99 | 1016.9 |
| 20260508101539 | 8 | 198 | 0.0 | 0.0 | 0.00 | 0.00 | 0.00 | 99 | 1016.8 |
| 20260508100036 | 8 | 198 | 0.0 | 4.8 | 0.00 | 0.00 | 0.00 | 99 | 1016.6 |
| 20260508094535 | 8 | 198 | 0.0 | 0.0 | 0.00 | 0.00 | 0.00 | 99 | 1016.4 |
| 20260508093018 | 8 | 198 | 0.0 | 4.8 | 0.00 | 0.00 | 0.00 | 100 | 1016.4 |
| 20260508091521 | 8 | 200 | 0.0 | 0.0 | 0.00 | 0.00 | 0.00 | 100 | 1016.4 |
| 20260508090105 | 8 | 337 | 0.0 | 1.6 | 0.00 | 0.00 | 0.00 | 100 | 1016.2 |
| 20260508084556 | 9 | 337 | 0.0 | 0.0 | 0.00 | 0.00 | 0.00 | 100 | 1016.2 |
| 20260508083049 | 9 | 337 | 0.0 | 0.0 | 0.00 | 0.00 | 0.00 | 100 | 1016.2 |
| 20260508081547 | 9 | 337 | 0.0 | 0.0 | 0.00 | 0.00 | 0.00 | 100 | 1015.9 |
| 20260508080040 | 10 | 337 | 0.0 | 0.0 | 0.00 | 0.00 | 0.00 | 100 | 1016.0 |
| 20260508074542 | 10 | 337 | 0.0 | 0.0 | 0.00 | 0.00 | 0.00 | 100 | 1015.9 |
| 20260508073039 | 10 | 337 | 0.0 | 0.0 | 0.00 | 0.00 | 0.00 | 100 | 1016.1 |
| 20260508071538 | 10 | 337 | 0.0 | 0.0 | 0.00 | 0.00 | 0.00 | 100 | 1016.0 |
| 20260508070038 | 10 | 337 | 0.0 | 0.0 | 0.00 | 0.00 | 0.00 | 100 | 1016.0 |
| 20260508064539 | 10 | 337 | 0.0 | 0.0 | 0.00 | 0.00 | 0.00 | 100 | 1016.1 |
| 20260508063024 | 10 | 337 | 0.0 | 0.0 | 0.00 | 0.00 | 0.00 | 100 | 1015.8 |
| 20260508061527 | 10 | 337 | 0.0 | 0.0 | 0.00 | 0.00 | 0.00 | 100 | 1016.0 |
| 20260508060024 | 10 | 337 | 0.0 | 0.0 | 0.00 | 0.00 | 0.00 | 100 | 1016.1 |
| 20260508054523 | 10 | 337 | 0.0 | 0.0 | 0.00 | 0.00 | 0.00 | 100 | 1016.0 |
| 20260508053021 | 10 | 337 | 0.0 | 0.0 | 0.00 | 0.00 | 0.00 | 100 | 1016.1 |
| 20260508051529 | 10 | 337 | 0.0 | 0.0 | 0.00 | 0.00 | 0.00 | 100 | 1016.0 |
| 20260508050019 | 10 | 337 | 0.0 | 0.0 | 0.00 | 0.00 | 0.00 | 100 | 1016.0 |
| 20260508044517 | 10 | 337 | 0.0 | 0.0 | 0.00 | 0.00 | 0.00 | 100 | 1015.8 |
| 20260508043007 | 10 | 337 | 0.0 | 0.0 | 0.00 | 0.00 | 0.00 | 100 | 1015.7 |
| 20260508041502 | 10 | 337 | 0.0 | 0.0 | 0.00 | 0.00 | 0.00 | 100 | 1015.4 |
| 20260508040001 | 10 | 337 | 0.0 | 0.0 | 0.00 | 0.00 | 0.00 | 100 | 1015.4 |
| 20260508034501 | 10 | 337 | 0.0 | 0.0 | 0.00 | 0.00 | 0.00 | 100 | 1015.3 |
| 20260508033103 | 10 | 337 | 0.0 | 0.0 | 0.00 | 0.00 | 0.00 | 100 | 1015.3 |
| 20260508031603 | 10 | 337 | 0.0 | 0.0 | 0.00 | 0.00 | 0.00 | 100 | 1015.4 |
| 20260508030058 | 10 | 337 | 0.0 | 0.0 | 0.00 | 0.00 | 0.00 | 100 | 1015.3 |
| 20260508024604 | 10 | 337 | 0.0 | 0.0 | 0.00 | 0.00 | 0.00 | 100 | 1015.3 |
| 20260508023057 | 10 | 337 | 0.0 | 0.0 | 0.00 | 0.00 | 0.00 | 100 | 1015.1 |
| 20260508021543 | 10 | 337 | 0.0 | 0.0 | 0.00 | 0.00 | 0.00 | 100 | 1014.7 |
| 20260508020041 | 10 | 337 | 0.0 | 0.0 | 0.00 | 0.00 | 0.00 | 99 | 1014.4 |
| 20260508014537 | 11 | 337 | 0.0 | 0.0 | 0.00 | 0.00 | 0.00 | 99 | 1014.3 |